Location: Asheville, NC
(35.6000°N, 82.5500°W)
Time: 11:42:05
(UTC-04:00)

KKS-1 - Pass Details

Date: 09 February 2018
Orbit: 637 x 651 km, 98.4° (Epoch: 23 May)

Event Time Altitude Azimuth Distance (km) Brightness Sun altitude
Rises 04:40:58 0° 146° (SSE) 2,922 ? -33.4°
Reaches altitude 10° 04:43:17 10° 138° (SE) 2,019 ? -32.9°
Enters shadow 04:45:47 28° 112° (ESE) 1,203 ? -32.4°
